Location: Grand Mazuras
(45.9128°N, 1.7636°E)
Time: 04:19:44
(UTC+00:00)

COSMOS 2455 - Pass Details

Date: 18 April 2021
Orbit: 902 x 907 km, 67.1° (Epoch: 10 May)

Event Time Altitude Azimuth Distance (km) Brightness Sun altitude
Exits shadow 21:18:15 33° 84° (E) 1,469 3.6 -23.3°
Drops below altitude 10° 21:22:25 10° 46° (NE) 2,597 5.3 -23.8°
Sets 21:25:05 0° 39° (NE) 3,543 6.1 -24.1°
